TimeCDT,TemperatureF,Dew PointF,Humidity,Sea Level PressureIn,VisibilityMPH,Wind Direction,Wind SpeedMPH,Gust SpeedMPH,PrecipitationIn,Events,Conditions,WindDirDegrees,DateUTC
12:56 AM,39.0,25.0,57,30.27,10.0,Calm,Calm,-,N/A,,Clear,0,2013-05-12 05:56:00
1:56 AM,35.1,27.0,72,30.29,10.0,Calm,Calm,-,N/A,,Clear,0,2013-05-12 06:56:00
2:56 AM,34.0,26.1,73,30.29,10.0,WSW,3.5,-,N/A,,Clear,250,2013-05-12 07:56:00
3:56 AM,34.0,26.1,73,30.30,10.0,Calm,Calm,-,N/A,,Clear,0,2013-05-12 08:56:00
4:56 AM,30.0,26.1,85,30.29,10.0,Calm,Calm,-,N/A,,Clear,0,2013-05-12 09:56:00
5:56 AM,30.0,25.0,82,30.30,10.0,Calm,Calm,-,N/A,,Scattered Clouds,0,2013-05-12 10:56:00
6:56 AM,35.1,30.0,82,30.29,10.0,Calm,Calm,-,N/A,,Mostly Cloudy,0,2013-05-12 11:56:00
7:56 AM,39.0,32.0,76,30.28,10.0,Calm,Calm,-,N/A,,Clear,0,2013-05-12 12:56:00
8:56 AM,46.0,25.0,44,30.27,10.0,ESE,6.9,-,N/A,,Clear,120,2013-05-12 13:56:00
9:56 AM,51.1,24.1,35,30.27,10.0,Variable,4.6,-,N/A,,Clear,0,2013-05-12 14:56:00
10:56 AM,55.0,21.0,27,30.25,10.0,SSE,8.1,-,N/A,,Clear,160,2013-05-12 15:56:00
11:56 AM,57.9,19.9,23,30.25,10.0,SE,9.2,-,N/A,,Clear,130,2013-05-12 16:56:00
12:56 PM,59.0,19.9,22,30.23,10.0,Calm,Calm,-,N/A,,Clear,0,2013-05-12 17:56:00
1:56 PM,63.0,21.9,21,30.20,10.0,Calm,Calm,-,N/A,,Clear,0,2013-05-12 18:56:00
2:56 PM,64.0,23.0,21,30.18,10.0,Variable,4.6,-,N/A,,Clear,0,2013-05-12 19:56:00
3:56 PM,66.0,25.0,21,30.16,10.0,SE,5.8,-,N/A,,Clear,130,2013-05-12 20:56:00
4:56 PM,66.0,24.1,20,30.14,10.0,SSE,5.8,-,N/A,,Clear,160,2013-05-12 21:56:00
5:56 PM,66.9,25.0,21,30.12,10.0,SSE,6.9,-,N/A,,Clear,150,2013-05-12 22:56:00
6:56 PM,66.0,26.1,22,30.10,10.0,South,3.5,-,N/A,,Clear,170,2013-05-12 23:56:00
7:56 PM,64.0,28.9,27,30.09,10.0,SE,8.1,-,N/A,,Clear,140,2013-05-13 00:56:00
8:56 PM,55.0,33.1,43,30.09,10.0,SE,6.9,-,N/A,,Clear,140,2013-05-13 01:56:00
9:56 PM,55.0,32.0,42,30.09,10.0,SE,9.2,-,N/A,,Clear,140,2013-05-13 02:56:00
10:56 PM,53.1,32.0,45,30.09,10.0,SE,9.2,-,N/A,,Clear,140,2013-05-13 03:56:00
11:56 PM,52.0,32.0,47,30.08,10.0,SE,6.9,-,N/A,,Clear,140,2013-05-13 04:56:00